This is the latest recevied weather packets stored in our database for station/object DK9HI-WX. If no packets are shown the sender has not sent any weather packets the latest 10 day(s).
| Time | Temp. | Humidity | Pressure | Rain* | Wind** | Luminosity | Snow |
|---|---|---|---|---|---|---|---|
| 1777157555 | 9.44° C | 64% | 1021.8 hPa | - | - | - | - |
| 1777156955 | 9.44° C | 63% | 1021.7 hPa | - | - | - | - |
| 1777156355 | 9.44° C | 62% | 1021.7 hPa | - | - | - | - |
| 1777155756 | 9.44° C | 61% | 1021.5 hPa | - | - | - | - |
| 1777155155 | 10° C | 60% | 1021.5 hPa | - | - | - | - |
| 1777154555 | 10° C | 59% | 1021.3 hPa | - | - | - | - |
| 1777153955 | 10° C | 60% | 1021.3 hPa | - | - | - | - |
| 1777153356 | 10.56° C | 58% | 1021.2 hPa | - | - | - | - |
| 1777152755 | 10° C | 59% | 1021.2 hPa | - | - | - | - |
| 1777152155 | 10.56° C | 58% | 1021.2 hPa | - | - | - | - |
| 1777151557 | 10° C | 61% | 1021.1 hPa | - | - | - | - |
| 1777150955 | 10.56° C | 59% | 1021 hPa | - | - | - | - |
| 1777149755 | 10.56° C | 59% | 1020.6 hPa | - | - | - | - |
| 1777149157 | 10.56° C | 60% | 1020.4 hPa | - | - | - | - |
| 1777148555 | 10.56° C | 60% | 1020.3 hPa | - | - | - | - |
| 1777147956 | 11.11° C | 60% | 1020.1 hPa | - | - | - | - |
| 1777147355 | 11.11° C | 60% | 1020.1 hPa | - | - | - | - |
| 1777146756 | 11.67° C | 61% | 1020.1 hPa | - | - | - | - |
| 1777146155 | 11.67° C | 61% | 1019.8 hPa | - | - | - | - |
| 1777145556 | 12.22° C | 60% | 1019.6 hPa | - | - | - | - |
| 1777144954 | 12.78° C | 58% | 1019.4 hPa | - | - | - | - |
| 1777144355 | 12.78° C | 58% | 1019.1 hPa | - | - | - | - |
| 1777143754 | 13.33° C | 58% | 1019 hPa | - | - | - | - |
| 1777143154 | 13.33° C | 58% | 1018.8 hPa | - | - | - | - |
| 1777142554 | 13.33° C | 57% | 1018.6 hPa | - | - | - | - |
* Rain since midnight (hover to see other rain measurements)
** Current wind speed in m/s (hover to see current wind gust speed)